Location: Township of Marena
(38.1747°N, 99.6798°W)
Time: 03:05:54
(UTC+00:00)

Cosmos 2278 - Pass Details

Date: 26 October 2020
Orbit: 841 x 851 km, 71.1° (Epoch: 27 November)

Event Time Altitude Azimuth Distance (km) Brightness Sun altitude
Rises 01:42:11 0° 186° (S) 3,396 6.9 -23.3°
Reaches altitude 10° 01:44:41 10° 181° (S) 2,464 6.1 -23.8°
Enters shadow 01:48:18 36° 156° (SSE) 1,304 4.4 -24.5°
